World > North America > United States > Texas > Nolan  

Nolan, TX Hourly Weather Conditions

Feedback E-mail the Weather

Quick WX

WeatherWX.com

Nolan, TX Weather Maps

°F °C°F °C
Nolan Weather Map
UTC Time: 9/24/2023, 17:41
Your Time:

Nolan, TX Regional Weather

Expires:202309241800;;928166
ASUS44 KSJT 241710
RWRSJT
WEST CENTRAL TEXAS REGIONAL WEATHER ROUNDUP
NATIONAL WEATHER SERVICE SAN ANGELO TX
1200 PM CDT SUN SEP 24 2023

NOTE: "FAIR" INDICATES FEW OR NO CLOUDS BELOW 12,000 FEET WITH NO
SIGNIFICANT WEATHER AND/OR OBSTRUCTIONS TO VISIBILITY.


TXZ049-054-064>066-071>073-076>078-098-099-113-114-127-128-139-140-
154-155-168>170-241800-
...LOCATIONS ACROSS WEST CENTRAL TEXAS...
  
CITY           SKY/WX    TMP DP  RH WIND       PRES   REMARKS
SAN ANGELO     SUNNY     94  65  38 W10       29.91R TC  34           
ABILENE        SUNNY     88  64  44 N9        29.91S TC  31           
DYESS AFB      SUNNY     85  60  41 NW8       29.88S TC  30           
JUNCTION       SUNNY     92  70  48 S10G18    29.92S TC  33           
SWEETWATER     SUNNY     86  61  42 N5        29.97S TC  30           
BROWNWOOD      SUNNY     91  68  46 SW9       29.88S TC  33           
COLEMAN        SUNNY     92  66  43 W7        29.90S TC  33           
SAN SABA       SUNNY     94  69  43 SW9       29.89F TC  35           
SONORA         SUNNY     90  68  48 CALM      30.00R TC  32           
OZONA          SUNNY     90  63  40 SW9G20    29.98S TC  32           
BRADY          SUNNY     91  68  46 SW13      29.91S TC  33           
$$


SKY/WX - Weather  TMP - Temperature  DP - Dew Point  RH - Humidity
WIND - Wind Direction/Speed PRES - Barometric Pressure VSB - Visibility
WCI - Wind Chill Index E13G22 Wind - East Wind 13 mph/Gusts of 22 mph

Trending Headlines

Trending Entertainment Headlines

Nolan Radar Loop

Use the map search tool if you want to place a location marker on the radar map...

Nolan Quick Facts

National Two Day Weather Forecast


E-mail the Nolan Weather Forecast

Voice your opinion or tell us about page issues...